Location: Goettingen
(51.5300°N, 9.9433°E)
Time: 22:25:06
(UTC+02:00)

ISS - Pass Details

Date: 29 July 2021
Orbit: 419 x 421 km, 51.6° (Epoch: 28 July)

Event Time Altitude Azimuth Distance (km) Brightness Sun altitude
Rises 23:10:40 0° 278° (W) 2,371 0.7 -13.9°
Reaches altitude 10° 23:13:57 10° 244° (WSW) 1,501 -0.9 -14.2°
Maximum altitude 23:15:08 12° 223° (SW) 1,410 -1.2 -14.3°
Enters shadow 23:15:55 11° 209° (SSW) 1,448 -1.3 -14.3°
